Flag for Germany Weather past 2 weeks in Hameln, Lower Saxony, Germany

Now
48 °F

Drizzle. Fog.


Feels Like: 41 °F
Forecast: 49 / 51 °F
Wind: 22 mph from West

Location: Bueckeburg

Current Time: Dec 22, 2014 at 7:41:31 AM

Latest Report: Dec 22, 2014 at 6:20 AM


Visibility: 2 mi

Pressure: 29.95 "Hg

Humidity: 87%

Dew point: 45 °F

Location of HamelnLocation

Historic Weather in Hameln — Graph

°F

Hameln temperature yesterday

Maximum temperature yesterday: 46 °F (at 10:20 PM)
Minimum temperature yesterday: 39 °F (at 1:20 AM)
Average temperature yesterday: 43 °F

Past Weeks' High & Low Weather Summary

 TemperatureHumidityPressure
High54 °F (Dec 18, 2:20 PM)94% (Dec 18, 12:20 AM)30.36 "Hg (Dec 18, 12:20 AM)
Low34 °F (Dec 14, 9:20 PM)61% (Dec 10, 5:20 AM)29.30 "Hg (Dec 12, 3:20 PM)
Average42 °F84%29.88 "Hg
* Reported Dec 7 6:20 AM — Dec 22 6:20 AM, Hameln, Weather by CustomWeather, © 2014

Note: Actual official high and low records may vary slightly from our data, if they occured in-between our weather recording intervals... More about our weather records

Advertising

Hameln weather history for previous 24 hours

 ConditionsComfort  
Time TempWeatherWind HumidityBarometerVisibility
6:20 AM
Dec 22
48 °FDrizzle. Fog.22 mph87%29.95 "Hg2 mi
5:20 AM48 °FCool.24 mph87%29.95 "Hg2 mi
4:20 AM48 °FCool.24 mph87%29.95 "Hg4 mi
3:20 AM46 °FCool.23 mph93%29.98 "Hg4 mi
2:20 AM46 °FCool.24 mph87%29.98 "Hg3 mi
1:20 AM46 °FCool.22 mph87%30.01 "Hg4 mi
12:20 AM46 °FCool.23 mph87%30.04 "Hg4 mi
11:20 PM
Dec 21
46 °FCool.21 mph87%30.04 "Hg4 mi
10:20 PM46 °FCool.21 mph82%30.04 "Hg6 mi
9:20 PM45 °FQuite cool.18 mph87%30.07 "Hg4 mi
8:20 PM45 °FQuite cool.21 mph87%30.09 "Hg4 mi
7:20 PM45 °FQuite cool.20 mph81%30.09 "Hg6 mi
6:20 PM45 °FQuite cool.17 mph87%30.12 "Hg3 mi
5:20 PM45 °FQuite cool.17 mph81%30.15 "Hg6 mi
4:20 PM45 °FQuite cool.16 mph81%30.18 "Hg5 mi
3:20 PM45 °FQuite cool.16 mph76%30.18 "Hg6 mi
2:20 PM45 °FQuite cool.17 mph81%30.21 "Hg5 mi
1:20 PM45 °FQuite cool.18 mph81%30.24 "Hg4 mi
12:20 PM43 °FQuite cool.16 mph87%30.27 "Hg4 mi
11:20 AM43 °FQuite cool.14 mph81%30.27 "Hg4 mi
10:20 AM43 °FQuite cool.13 mph81%30.30 "Hg4 mi
9:20 AM41 °FQuite cool.13 mph87%30.30 "Hg4 mi
8:20 AM39 °FChilly.12 mph87%30.30 "Hg4 mi
7:20 AM39 °FChilly.12 mph87%30.27 "Hg5 mi
Weather by CustomWeather, © 2014

See weather overviewHow to use our weather pages